CEST,Max TemperatureF,Mean TemperatureF,Min TemperatureF,Max Dew PointF,MeanDew PointF,Min DewpointF,Max Humidity, Mean Humidity, Min Humidity, Max Sea Level PressureIn, Mean Sea Level PressureIn, Min Sea Level PressureIn, Max VisibilityMiles, Mean VisibilityMiles, Min VisibilityMiles, Max Wind SpeedMPH, Mean Wind SpeedMPH, Max Gust SpeedMPH,PrecipitationIn, CloudCover, Events, WindDirDegrees
2013-7-1,53,48,42,48,43,37,100,82,61,30.24,30.23,30.21,19,7,0,21,9,,0.00,3,Fog,232
2013-7-2,59,51,43,49,44,36,100,78,41,30.27,30.23,30.21,9,3,0,21,9,,0.00,3,Fog,244
2013-7-3,54,49,44,46,42,34,100,80,50,30.21,30.16,30.06,16,4,0,21,16,,0.00,3,Fog,245
2013-7-4,57,50,43,47,41,36,100,70,40,30.39,30.26,30.18,19,8,6,8,5,,0.00,2,,299
2013-7-5,61,54,48,50,47,43,94,75,58,30.48,30.43,30.39,19,9,6,6,3,,0.02,3,Rain,79
2013-7-6,61,55,49,50,47,39,88,75,51,30.48,30.45,30.42,19,8,6,7,4,,0.00,3,Thunderstorm,160
2013-7-7,58,52,47,50,47,41,100,78,54,30.48,30.45,30.42,19,7,0,12,5,,0.00,2,Fog-Rain-Thunderstorm,249
2013-7-8,63,56,49,52,49,46,100,80,56,30.48,30.46,30.42,19,7,0,8,5,,0.00,3,Fog-Thunderstorm,195
2013-7-9,62,55,48,53,48,43,100,81,63,30.45,30.38,30.33,19,7,0,9,4,,0.00,3,Fog-Rain-Thunderstorm,222
2013-7-10,58,53,48,51,48,44,100,82,55,30.30,30.22,30.15,19,6,0,7,2,,0.08,2,Fog-Rain,267
2013-7-11,59,52,46,52,44,39,95,69,43,30.18,30.14,30.12,19,10,0,12,5,,0.02,2,Fog-Rain,272
2013-7-12,59,52,46,52,48,42,100,83,65,30.24,30.19,30.18,16,5,0,34,8,,0.00,3,Fog-Rain,216
2013-7-13,59,53,47,50,45,36,94,74,42,30.24,30.23,30.21,6,3,0,22,6,,0.02,3,Fog-Rain-Thunderstorm,214
2013-7-14,60,52,45,48,43,29,100,65,28,30.30,30.28,30.27,19,12,6,13,6,,0.00,1,Thunderstorm,283
2013-7-15,63,56,48,51,46,41,94,67,41,30.33,30.30,30.30,12,9,6,13,7,,0.00,2,,308
2013-7-16,65,57,49,55,48,39,100,74,49,30.39,30.36,30.33,12,7,0,20,7,,0.00,2,Fog,261
2013-7-17,62,56,50,54,51,48,100,86,59,30.39,30.36,30.33,12,2,0,16,8,,0.00,3,Fog,212
2013-7-18,62,55,48,51,47,42,94,76,51,30.36,30.34,30.33,12,7,0,17,7,,0.00,4,Fog-Thunderstorm,192
2013-7-19,61,54,47,48,45,38,87,69,48,30.33,30.29,30.24,19,8,6,17,6,,0.01,2,Thunderstorm,240
2013-7-20,63,56,48,48,45,41,82,65,39,30.30,30.27,30.24,19,9,6,98,9,,0.00,1,,235
2013-7-21,63,57,51,54,49,44,88,77,63,30.36,30.32,30.30,19,8,6,34,7,,0.00,2,Thunderstorm,220
2013-7-22,64,58,51,54,52,45,100,86,61,30.36,30.31,30.27,9,3,0,18,7,,0.01,2,Fog-Thunderstorm,232
2013-7-23,65,58,50,49,43,36,77,57,37,30.30,30.24,30.21,19,9,6,14,7,,0.00,2,,329
2013-7-24,61,56,51,55,51,46,100,83,65,30.27,30.24,30.21,19,7,0,18,5,,0.03,2,Fog-Rain,241
2013-7-25,64,58,51,50,43,36,82,56,39,30.33,30.30,30.27,19,8,6,14,6,,0.00,1,,233
2013-7-26,66,60,55,59,54,46,100,81,58,30.33,30.32,30.30,12,7,0,17,5,,0.03,3,Fog-Rain,212
2013-7-27,68,62,55,59,54,46,100,78,55,30.33,30.28,30.24,16,6,0,16,6,,0.00,1,Fog-Thunderstorm,229
2013-7-28,66,60,55,57,50,43,100,68,45,30.33,30.30,30.27,19,8,0,25,12,,0.00,1,Fog,215
2013-7-29,55,48,42,54,48,43,100,88,63,30.33,30.22,30.12,12,3,0,32,16,,0.35,1,Fog-Rain-Thunderstorm,226
2013-7-30,56,49,42,41,36,30,87,59,40,30.33,30.26,30.15,6,6,6,24,13,,0.00,2,,6
2013-7-31,61,54,48,48,41,34,67,57,43,30.36,30.34,30.33,6,6,6,15,8,,0.00,1,,339